Retour au catalogue

COSMOS 1275 DEB

ActifPO
NORAD 13022·DEBRIS·🇷🇺 Russia

Lancé Jun 4, 1981 depuis Plesetsk Cosmodrome

Loading…

Prochains Passages (prochaines 24 heures)

TLE

FraisSource: Space-Track

Époque: Sep 14, 2026, 06:35 UTC

1 13022U 81053EU  26257.27432106  .00000814  00000-0  36749-3 0  9997
2 13022  82.9177 190.4698 0045504  94.3344  57.0686 14.20497258298098

Suivez COSMOS 1275 DEB en temps réel avec AllMySat

Download on the App Store